Current weather by "City, St" or "zip code"  
 

Current Conditions: Taylorville, Taylorville Municipal Airport, IL

Overcast


NULL F

Last Updated on Oct 21 2021, 12:55 pm CDT
Humidity: %
Wind Speed: W 16.1 G 21.9 mph
Barometer 30.03 in
Dewpoint: F
Visibility: 10.00 mi
Precip: --
Heat Index: NA
Wind Chill: NA
Current conditions at:

Taylorville, Taylorville Municipal Airport, IL (KTAZ)

Lat: 39.53417 Lon: 89.32778

Local Radar Image active severe weather and emergency alerts image image weather storm and storm spotter reports image weather observation monitoring service image
Local
Radar
Active
Alerts
Storm Reports Obs
Monitoring

Sign-up For Email & Text Message Weather Alert Notification Services



Advertise Here

Observation History for Taylorville, Taylorville Municipal Airport, IL


Time Wind
(mph)
Vis
(mi)
Weather Precip (in) Temperature (F) Relative
Humidity
Wind
Chill
(F)
Heat
Index
(F)
Pressure
Air Dwpt altimeter
(in)
sea level
(mb)
Rmks
12:55 pm CDT W 16.1 G 21.9 10.00 Overcast -- NULL % NA NA 30.03 M
11:55 am CDT W 13.8 G 21.9 10.00 Overcast -- NULL % NA NA 30.04 M
10:55 am CDT W 12.7 G 24.2 10.00 Overcast -- NULL % NA NA 30.03 M
9:55 am CDT W 12.7 10.00 Overcast -- NULL % NA NA 30.02 M
9:35 am CDT W 13.8 G 19.6 10.00 Overcast -- NULL % NA NA 30.01 M
8:55 am CDT W 16.1 G 27.6 10.00 Overcast -- NULL % NA NA 30.01 M
8:35 am CDT W 16.1 G 23.0 10.00 Overcast -- NULL % NA NA 30.00 M
7:55 am CDT W 11.5 G 17.3 10.00 Fair -- NULL % 58 NA 29.99 M
6:55 am CDT W 9.2 G 17.3 10.00 Partly Cloudy -- NULL % 50 NA 29.98 M
5:55 am CDT W 10.4 G 16.1 10.00 Fair -- NULL % 46 NA 29.96 M
4:55 am CDT W 6.9 10.00 Fair -- NULL % 48 NA 29.96 M
4:35 am CDT W 9.2 10.00 Fair -- NULL % 48 NA 29.96 M
3:55 am CDT W 9.2 10.00 Fair -- NULL % 50 NA 29.96 M
2:55 am CDT W 13.8 G 17.3 10.00 Partly Cloudy -- NULL % 53 NA 29.95 M
1:55 am CDT NW 9.2 G 18.4 10.00 Overcast -- NULL % 54 NA 29.94 M
12:55 am CDT SW 6.9 10.00 Mostly Cloudy -- NULL % 54 NA 29.94 M
11:55 pm CDT SW 10.4 10.00 Light Rain -- NULL % 53 NA 29.95 M
11:35 pm CDT SW 12.7 10.00 Overcast -- NULL % 53 NA 29.95 M
10:55 pm CDT S 10.4 10.00 Overcast -- NULL % 53 NA 29.95 M
10:35 pm CDT SW 10.4 10.00 Overcast -- NULL % 53 NA 29.96 M
9:55 pm CDT SW 10.4 10.00 Overcast -- NULL % 56 NA 29.96 M
8:55 pm CDT S 11.5 10.00 Overcast -- NULL % 47 NA 29.95 M
8:35 pm CDT S 15.0 10.00 Overcast -- NULL % 46 NA 29.95 M
7:55 pm CDT S 11.5 G 17.3 10.00 Overcast -- NULL % 48 NA 29.96 M

Regional Weather Observation


Taylorville, Taylorville Municipal Airport, IL (KTAZ)

Overcast
NULL F

Litchfield Municipal Airport, IL (K3LF)

Overcast
54.0 F

Logan County Airport, IL (KAAA)

Overcast
52.0 F

Decatur Airport, IL (KDEC)

Overcast
53.0 F

Jacksonville Municipal Airport, IL (KIJX)

Overcast
52.0 F

Peoria - General Downing-Peoria International Airport, IL (KPIA)

Overcast
51.0 F

Advertise Here


Advertise Here